Regional Weather Roundup
Issued by NWS

Home | Current Version | Previous Version | Graphics & Text | Print | Product List | Glossary On
Versions: 1 2 3 4 5 6 7 8 9 10 11 12 13 14 15 16 17 18 19 20 21 22 23 24 25 26 27 28 29 30 31 32 33 34 35 36 37 38 39 40 41 42 43 44 45 46 47 48 49 50
000
ASUS43 KMPX 240910
RWRMN
WEATHER ROUNDUP FOR MINNESOTA
NATIONAL WEATHER SERVICE TWIN CITIES/CHANHASSEN MN
300 AM CST MON NOV 24 2014


NOTE: "FAIR" INDICATES FEW OR NO CLOUDS BELOW 12,000 FEET WITH NO
SIGNIFICANT WEATHER AND/OR OBSTRUCTIONS TO VISIBILITY. N/A MEANS
CURRENT SKY AND/OR WEATHER CONDITIONS ARE NOT AVAILABLE.

MNZ060>063-068>070-241000-
   Twin Cities Metro

CITY           SKY/WX    TMP DP  RH WIND       PRES   REMARKS
TWIN CITIES    CLOUDY    31  27  85 NW16      29.30F WCI  20
ST PAUL        CLOUDY    32  28  85 W16       29.30F WCI  21
CRYSTAL        CLOUDY    32  27  81 NW16G24   29.30S WCI  21
BLAINE         CLOUDY    34  32  93 W15G22    29.30S WCI  24
LAKEVILLE      CLOUDY    28  27  93 W18       29.30R WCI  16
EDEN PRAIRIE   CLOUDY    31  25  78 NW14G24   29.30S WCI  21
SOUTH ST PAUL  CLOUDY    33  29  86 NW12G17   29.29F WCI  24
LAKE ELMO      FLURRIES  32  32 100 NW12G17   29.29S WCI  23
$$
MNZ001>005-007-008-013>017-022>024-027-028-241000-
   Northwest Minnesota

CITY           SKY/WX    TMP DP  RH WIND       PRES   REMARKS
BEMIDJI        CLOUDY    17  15  93 NW15      29.42S FOG     WCI   2
HALLOCK        CLOUDY    12   7  79 N23G33    29.63R WCI  -7
ROSEAU         FLURRIES  16  10  79 N22       29.53R WCI  -2
WARROAD        CLOUDY    16  12  86 NW10G16   29.51R WCI   3
THIEF RVR FALL CLOUDY    12   9  85 NW24G30   29.53S WCI  -8
CROOKSTON      FLURRIES  12  10  92 N23G36    29.59R WCI  -7
FOSSTON        LGT SNOW  12  10  92 NW17G23   29.51R WCI  -5
DETROIT LAKES  FLURRIES  16  14  93 NW17G26   29.49S WCI   0
MOORHEAD       LGT SNOW  16  14  93 NW18G29   29.59R WCI  -1
PARK RAPIDS    CLOUDY    17  14  88 NW15      29.41S WCI   2
MAHNOMEN       LGT SNOW  13  10  85 NW17      29.51R WCI  -3
$$
MNZ006-009>011-018-025>026-241000-
   North Central Minnesota

CITY           SKY/WX    TMP DP  RH WIND       PRES   REMARKS
BAUDETTE       CLOUDY    23  20  88 N21G30    29.42R WCI   8
FLAG ISLAND    CLOUDY    18  16  93 N18       29.49R WCI   2
INTL FALLS     CLOUDY    32  29  88 N14       29.34S WCI  22
WASKISH        LGT SNOW  23  21  93 W3        29.42S
BIG FORK       MIX PCPN  27  25  93 NW7       29.35S WCI  19
LONGVILLE      CLOUDY    19  19 100 NW12G20   29.38S WCI   7
GRAND RAPIDS   CLOUDY    25  21  86 NW15G21   29.33S WCI  12
CRANE LAKE     LGT SNOW  32  30  93 N7        29.31S WCI  26
ORR            MIX PCPN  32  30  93 NW5       29.28S WCI  27
COOK           LGT SNOW  32  32 100 NW7       29.29S WCI  26
WALKER         CLOUDY    18  16  91 NW8       29.41S WCI   8
$$
MNZ012-019>021-037-241000-
   Northeast Minnesota

CITY           SKY/WX    TMP DP  RH WIND       PRES   REMARKS
DULUTH         LGT SNOW  34  31  88 NW14      29.22F FOG     WCI  25
ELY            LGT SNOW  32  32 100 NW7       29.24F WCI  26
HIBBING        LGT SNOW  32  29  88 NW17G26   29.28S FOG     WCI  21
EVELETH        MIX PCPN  34  32  93 NW12G18   29.27F WCI  25
DULUTH HARBOR  DRIZZLE   37  34  87 CALM      29.25F
TWO HARBORS    LGT RAIN  37  34  87 NW7       29.19F
SILVER BAY     DRIZZLE   37  34  87 NW3       29.18F
GRAND MARAIS     N/A     39  34  82 N18G30    29.13F
G MARAIS ARPRT RAIN      32  28  86 N13       29.16F WCI  22
$$
MNZ029>031-032-039>041-046>048-054>057-064-241000-
   West Central Minnesota

CITY           SKY/WX    TMP DP  RH WIND       PRES   REMARKS
FERGUS FALLS   LGT SNOW  16  10  79 NW22G32   29.55R WCI  -2
WHEATON        FLURRIES  16  10  79 NW24      29.57S WCI  -3
MORRIS         FLURRIES  18  14  86 NW25G37   29.49R WCI  -1
ALEXANDRIA     CLOUDY    18  13  80 NW18G26   29.44R WCI   2
ELBOW LAKE     LGT SNOW  16  13  89 NW24G31   29.49S WCI  -2
WADENA         CLOUDY    16  12  86 NW16      29.43R WCI   0
GLENWOOD       MOCLDY    18  14  86 NW25      29.44S WCI  -1
APPLETON       CLOUDY    19  12  73 NW29G36   29.52R WCI   1
BENSON         FLURRIES  18  16  93 N22G29    29.48S WCI   0
ORTONVILLE     CLOUDY    18  10  73 NW26G35   29.53R WCI  -1
MADISON        PTCLDY    21  16  79 NW25G31   29.53R WCI   4
WILLMAR        CLOUDY    21  16  79 NW24G31   29.45R WCI   4
$$
MNZ033>034-036-042>043-049>051-058-059-241000-
   Central Minnesota

CITY           SKY/WX    TMP DP  RH WIND       PRES   REMARKS
ST CLOUD       CLOUDY    26  20  77 NW21G28   29.36R WCI  12
SAUK CENTRE    CLOUDY    19  16  86 NW22      29.41R WCI   3
PAYNESVILLE    CLOUDY    19  17  90 W15G22    29.42R WCI   5
AITKIN         CLOUDY    27  21  80 NW8       29.33S WCI  18
PINE RIVER     CLOUDY    21  18  86 NW13      29.43R VSB 1   WCI   9
BRAINERD       CLOUDY    23  20  88 NW18      29.37S WCI   9
STAPLES        CLOUDY    18  16  93 NW14G21   29.41S WCI   4
LONG PRAIRIE   CLOUDY    19  14  79 NW18G30   29.41R WCI   4
LITTLE FALLS   CLOUDY    23  19  86 NW14G23   29.38S WCI  11
LITCHFIELD     CLOUDY    25  21  86 NW18G31   29.39R WCI  11
BUFFALO        CLOUDY    29  24  82 W16G22    29.35S WCI  17
MAPLE LAKE     CLOUDY    28  24  86 W16G24    29.36R WCI  16
$$
MNZ037-044-045-052-053-241000-
   East Central Minnesota

CITY           SKY/WX    TMP DP  RH WIND       PRES   REMARKS
PRINCETON      CLOUDY    30  27  86 NW17G25   29.33R WCI  18
MORA           CLOUDY    32  28  86 NW17G29   29.31R WCI  21
CAMBRIDGE      CLOUDY    34  27  75 W12       29.28S WCI  25
RUSH CITY      CLOUDY    33  31  94 NW8       29.28S WCI  26
MOOSE LAKE     LGT SNOW  32  32 100 NW10      29.26R WCI  24
HINCKLEY       CLOUDY    34  32  93 NW10G18   29.27S WCI  26
CLOQUET        LGT SNOW  34  32  93 NW15G21   29.24F WCI  24
MCGREGOR       CLOUDY    28  28 100 NW14      29.32S WCI  17
$$
MNZ071>073-080-081-089-090-097-098-241000-
   Southwest Minnesota

CITY           SKY/WX    TMP DP  RH WIND       PRES   REMARKS
MONTEVIDEO     CLOUDY    19  16  86 N21G35    29.50R WCI   3
GRANITE FALLS  CLOUDY    20  15  81 W25G35    29.50S WCI   2
CANBY          CLOUDY    20  15  79 NW22G28   29.53S WCI   3
MARSHALL       CLOUDY    19  10  68 NW26G35   29.48S WCI   1
REDWOOD FALLS  CLOUDY    22  16  78 NW17G31   29.45R WCI   8
OLIVIA         CLOUDY    23  19  86 NW22G30   29.44R WCI   8
PIPESTONE      CLOUDY    19  12  73 NW18G32   29.48R WCI   4
WINDOM         CLOUDY    21  19  93 NW24G31   29.43R WCI   4
WORTHINGTON    CLOUDY    21  16  79 NW24G30   29.46R WCI   4
JACKSON        CLOUDY    23  19  86 NW28G35   29.42S WCI   6
TRACY          CLOUDY    21  17  83 NW25G35   29.47S WCI   4
SLAYTON        CLOUDY    20  16  86 NW25G31   29.46S WCI   2
$$
MNZ065>067-074>077-082>085-091>093-241000-
   South Central Minnesota

CITY           SKY/WX    TMP DP  RH WIND       PRES   REMARKS
MANKATO        CLOUDY    27  21  80 NW23G31   29.36S WCI  12
NEW ULM        CLOUDY    23  21  93 NW25G33   29.40R WCI   7
ST JAMES       CLOUDY    25  23  93 W21G35    29.41S WCI  10
FAIRMONT       CLOUDY    25  18  74 NW22G33   29.40R WCI  10
GLENCOE        CLOUDY    28  26  91 W24G30    29.36R WCI  14
FARIBAULT      CLOUDY    30  27  86 W15G23    29.32R WCI  19
OWATONNA       CLOUDY    28  27  93 NW16G26   29.32S WCI  17
WASECA         CLOUDY    28  25  86 NW16G28   29.35S FOG     WCI  17
ALBERT LEA     CLOUDY    28  27  93 NW17G29   29.31S FOG     WCI  16
$$
MNZ078>079-086>088-094>096-241000-
   Southeast Minnesota

CITY           SKY/WX    TMP DP  RH WIND       PRES   REMARKS
ROCHESTER      LGT SNOW  30  28  92 NW22G30   29.25R FOG     WCI  17
RED WING         N/A     34  30  86 NW9G17    29.26S WCI  26
STANTON        CLOUDY    32  28  83 NW17      29.29S WCI  21
DODGE CENTER   LGT SNOW  30  28  93 NW17G25   29.27S WCI  18
WINONA         DRIZZLE   36  34  93 NW15      29.22R
AUSTIN         LGT SNOW  28  27  93 NW22G29   29.28S WCI  15
PRESTON        LGT SNOW  30  29  95 NW21G30   29.23S WCI  17
$$
ABBREVIATIONS USED IN REMARKS
   TC - TEMPERATURES IN CELSIUS
  WCI - WIND CHILL INDEX
   HX - HEAT INDEX
  VSB - VISIBILITY
$$



USA.gov is the U.S. government's official web portal to all federal, state and local government web resources and services.